GW4240 Weather Reports


Display with metric or nautical units.
time (UTC)temp
F
wind
direction
speed
MPH
gust
MPH
rain 1hr
in
rain 24hr
in
rain mn
in
humidity
%
barometer
mb
20260904210526 63 264 5.0 9.0 0.00 0.00 0.00 80 1014.4
20260904210048 64 276 2.0 6.0 0.00 0.00 0.00 78 1014.4
20260904205530 65 245 2.0 6.0 0.00 0.00 0.00 78 1014.4
20260904205025 66 281 3.0 6.0 0.00 0.00 0.00 75 1014.4
20260904204543 66 267 2.0 5.0 0.00 0.00 0.00 76 1014.4
20260904204024 66 233 1.0 6.0 0.00 0.00 0.00 77 1014.3
20260904203528 65 265 2.0 6.0 0.00 0.00 0.00 78 1014.3
20260904203050 65 316 2.0 6.0 0.00 0.00 0.00 78 1014.2
20260904202525 65 235 1.0 5.0 0.00 0.00 0.00 77 1014.1
20260904202027 66 347 2.0 7.0 0.00 0.00 0.00 76 1014.0
20260904201549 66 95 2.0 7.0 0.00 0.00 0.00 76 1013.9
20260904201025 66 235 2.0 6.0 0.00 0.00 0.00 78 1013.9
20260904200525 65 280 1.0 5.0 0.00 0.00 0.00 78 1013.9
20260904200048 65 255 2.0 6.0 0.00 0.00 0.00 78 1013.9
20260904195525 64 311 2.0 6.0 0.00 0.00 0.00 78 1014.1
20260904195025 65 266 3.0 6.0 0.00 0.00 0.00 76 1014.1
20260904194604 65 250 2.0 6.0 0.00 0.00 0.00 77 1014.1
20260904194026 64 279 2.0 8.0 0.00 0.00 0.00 77 1014.2
20260904193527 64 316 3.0 8.0 0.00 0.00 0.00 76 1014.1
20260904193050 65 15 2.0 6.0 0.00 0.00 0.00 76 1014.3
20260904192525 65 160 2.0 6.0 0.00 0.00 0.00 77 1014.3
20260904192025 64 122 1.0 6.0 0.00 0.00 0.00 79 1014.2
20260904191546 63 154 2.0 5.0 0.00 0.00 0.00 80 1014.2
20260904191025 62 225 1.0 4.0 0.00 0.00 0.00 81 1014.2
20260904190526 62 229 1.0 6.0 0.00 0.00 0.00 81 1014.2
20260904190045 62 114 3.0 7.0 0.00 0.00 0.00 80 1014.1
20260904185526 62 153 3.0 7.0 0.00 0.00 0.00 81 1014.0
20260904185025 62 198 1.0 4.0 0.00 0.00 0.00 82 1014.0
20260904184548 62 168 1.0 4.0 0.00 0.00 0.00 83 1014.1
20260904184026 61 162 1.0 5.0 0.00 0.00 0.00 83 1014.2
20260904183527 62 141 2.0 5.0 0.00 0.00 0.00 82 1014.0
20260904183108 62 210 2.0 4.0 0.00 0.00 0.00 82 1014.0
20260904182526 62 146 2.0 6.0 0.00 0.00 0.00 81 1014.1
20260904182030 62 289 1.0 6.0 0.00 0.00 0.00 82 1014.0
20260904181601 62 200 1.0 6.0 0.00 0.00 0.00 83 1014.0
20260904181024 62 207 1.0 5.0 0.00 0.00 0.00 83 1013.9
20260904180528 62 181 2.0 6.0 0.00 0.00 0.00 84 1014.0
20260904180051 62 166 2.0 6.0 0.00 0.00 0.00 84 1014.0
20260904175525 62 184 1.0 6.0 0.00 0.00 0.00 85 1014.0
20260904175025 61 18 2.0 6.0 0.00 0.00 0.00 84 1014.0
20260904174548 61 122 1.0 4.0 0.00 0.00 0.00 85 1014.0
20260904174027 60 251 1.0 4.0 0.00 0.00 0.00 86 1014.0
20260904173525 59 110 1.0 4.0 0.00 0.00 0.00 88 1013.9
20260904173045 59 153 1.0 4.0 0.00 0.00 0.00 90 1013.9
20260904172525 58 168 1.0 3.0 0.00 0.00 0.00 90 1013.9
20260904172027 58 124 1.0 3.0 0.00 0.00 0.00 91 1013.8
20260904171543 58 156 1.0 4.0 0.00 0.00 0.00 93 1013.7
20260904171026 57 135 2.0 5.0 0.00 0.00 0.00 92 1013.8
20260904170525 56 139 3.0 7.0 0.00 0.00 0.00 92 1013.8
20260904170051 56 136 3.0 7.0 0.00 0.00 0.00 93 1013.9
20260904165526 56 111 4.0 7.0 0.00 0.00 0.00 92 1013.8
20260904165025 56 117 4.0 6.0 0.00 0.00 0.00 94 1013.8
20260904164548 56 98 4.0 6.0 0.00 0.00 0.00 94 1013.7
20260904164025 56 131 3.0 6.0 0.00 0.00 0.00 94 1013.7
20260904163526 55 85 4.0 6.0 0.00 0.00 0.00 95 1013.7
20260904163043 55 118 3.0 6.0 0.00 0.00 0.00 95 1013.6
20260904162525 55 98 3.0 5.0 0.00 0.00 0.00 96 1013.4
20260904162024 55 114 3.0 5.0 0.00 0.00 0.00 96 1013.5
20260904161542 55 98 2.0 4.0 0.00 0.00 0.00 96 1013.4
20260904161026 55 110 2.0 3.0 0.00 0.00 0.00 97 1013.4
20260904160526 54 102 1.0 3.0 0.00 0.00 0.00 97 1013.6
20260904160050 54 79 1.0 3.0 0.00 0.00 0.00 97 1013.6
20260904155525 54 99 2.0 3.0 0.00 0.00 0.00 97 1013.5
20260904155025 54 93 2.0 4.0 0.00 0.00 0.00 97 1013.3
20260904154554 54 87 2.0 4.0 0.00 0.00 0.00 97 1013.3
20260904154027 53 95 2.0 4.0 0.00 0.00 0.00 97 1013.3
20260904153526 53 100 2.0 4.0 0.00 0.00 0.00 97 1013.3
20260904153050 53 115 1.0 2.0 0.00 0.00 0.00 98 1013.2
20260904152529 53 111 1.0 2.0 0.00 0.00 0.00 98 1013.3
20260904152026 53 36 0.0 2.0 0.00 0.00 0.00 97 1013.3
20260904151554 53 82 1.0 3.0 0.00 0.00 0.00 98 1013.2
20260904151026 52 84 1.0 3.0 0.00 0.00 0.00 98 1013.2
20260904150526 52 98 1.0 3.0 0.00 0.00 0.00 98 1013.2
20260904150049 52 106 1.0 2.0 0.00 0.00 0.00 98 1013.0
20260904145525 52 81 1.0 4.0 0.00 0.00 0.00 98 1013.0
20260904145025 52 98 3.0 4.0 0.00 0.00 0.00 98 1012.9
20260904144547 52 76 2.0 3.0 0.00 0.00 0.00 98 1013.0
20260904144029 52 46 1.0 1.0 0.00 0.00 0.00 98 1013.0
20260904143525 51 22 0.0 1.0 0.00 0.00 0.00 98 1012.8
20260904143050 51 0 0.0 1.0 0.00 0.00 0.00 97 1012.8
20260904142525 51 20 1.0 1.0 0.00 0.00 0.00 97 1012.7
20260904142030 51 24 1.0 1.0 0.00 0.00 0.00 98 1012.6
20260904141544 51 24 0.0 1.0 0.00 0.00 0.00 98 1012.5
20260904141025 51 0 0.0 0.0 0.00 0.00 0.00 98 1012.5
20260904140526 51 0 0.0 0.0 0.00 0.00 0.00 98 1012.5
20260904140054 51 0 0.0 1.0 0.00 0.00 0.00 98 1012.3
20260904135526 51 24 0.0 2.0 0.00 0.00 0.00 97 1012.4
20260904135027 51 0 1.0 2.0 0.00 0.00 0.00 97 1012.3
20260904134556 51 339 1.0 2.0 0.00 0.00 0.00 97 1012.4
20260904134025 51 92 0.0 2.0 0.00 0.00 0.00 97 1012.4
20260904133525 51 0 0.0 2.0 0.00 0.00 0.00 98 1012.3
20260904133049 51 94 1.0 2.0 0.00 0.00 0.00 97 1012.3
20260904132527 51 354 1.0 2.0 0.00 0.00 0.00 97 1012.1
20260904132025 51 355 1.0 2.0 0.00 0.00 0.00 97 1012.1
20260904131548 51 51 1.0 2.0 0.00 0.00 0.00 97 1012.2
20260904131028 51 86 0.0 3.0 0.00 0.00 0.00 97 1012.2
20260904130525 51 53 2.0 3.0 0.00 0.00 0.00 97 1012.1
20260904130051 51 8 1.0 2.0 0.00 0.00 0.00 97 1012.1
20260904125526 51 41 1.0 2.0 0.00 0.00 0.00 97 1012.2
20260904125025 51 52 1.0 2.0 0.00 0.00 0.00 97 1012.2
20260904124547 51 68 1.0 1.0 0.00 0.00 0.00 97 1012.1
20260904124025 51 36 0.0 2.0 0.00 0.00 0.00 97 1011.9
20260904123525 51 35 1.0 2.0 0.00 0.00 0.00 97 1012.0
20260904123046 51 39 1.0 2.0 0.00 0.00 0.00 97 1012.0
20260904122526 50 34 1.0 2.0 0.00 0.00 0.00 97 1012.0
20260904122025 50 34 1.0 2.0 0.00 0.00 0.00 97 1011.9
20260904121608 51 45 0.0 1.0 0.00 0.00 0.00 97 1011.7
20260904121025 51 0 0.0 0.0 0.00 0.00 0.00 97 1011.6
20260904120529 50 0 0.0 0.0 0.00 0.00 0.00 97 1011.4
20260904120053 50 0 0.0 0.0 0.00 0.00 0.00 97 1011.2
20260904115525 50 0 0.0 0.0 0.00 0.00 0.00 97 1011.3
20260904115025 50 0 0.0 0.0 0.00 0.00 0.00 97 1011.3
20260904114548 50 0 0.0 0.0 0.00 0.00 0.00 97 1011.2
20260904114026 50 0 0.0 0.0 0.00 0.00 0.00 97 1011.3
20260904113526 50 0 0.0 0.0 0.00 0.00 0.00 97 1011.2
20260904113048 50 0 0.0 0.0 0.00 0.00 0.00 97 1011.1
20260904112526 50 0 0.0 0.0 0.00 0.00 0.00 96 1011.1
20260904112028 50 0 0.0 0.0 0.00 0.00 0.00 97 1011.1
20260904111558 50 0 0.0 0.0 0.00 0.00 0.00 96 1011.2
20260904111026 50 0 0.0 0.0 0.00 0.00 0.00 97 1011.2
20260904110526 50 0 0.0 0.0 0.00 0.00 0.00 97 1011.2
20260904110058 50 0 0.0 0.0 0.00 0.00 0.00 97 1011.1
20260904105526 50 0 0.0 0.0 0.00 0.00 0.00 97 1011.0
20260904105027 50 0 0.0 0.0 0.00 0.00 0.00 97 1011.0
20260904104556 49 0 0.0 0.0 0.00 0.00 0.00 96 1010.9
20260904104028 49 0 0.0 0.0 0.00 0.00 0.00 96 1010.9
20260904103526 49 0 0.0 0.0 0.00 0.00 0.00 96 1010.9
20260904103047 49 0 0.0 0.0 0.00 0.00 0.00 96 1011.0
20260904102526 50 0 0.0 0.0 0.00 0.00 0.00 96 1011.0
20260904102030 50 0 0.0 0.0 0.00 0.00 0.00 96 1010.9
20260904101547 50 0 0.0 0.0 0.00 0.00 0.00 96 1010.9
20260904101026 49 0 0.0 0.0 0.00 0.00 0.00 96 1010.9
20260904100526 50 0 0.0 0.0 0.00 0.00 0.00 96 1010.9
20260904100042 50 0 0.0 0.0 0.00 0.00 0.00 96 1010.8
20260904095529 50 0 0.0 0.0 0.00 0.00 0.00 96 1010.9
20260904095025 50 0 0.0 0.0 0.00 0.00 0.00 96 1010.8
20260904094549 50 0 0.0 0.0 0.00 0.00 0.00 96 1010.9
20260904094025 50 0 0.0 0.0 0.00 0.00 0.00 96 1011.0
20260904093525 50 0 0.0 0.0 0.00 0.00 0.00 96 1010.9
20260904093053 50 0 0.0 0.0 0.00 0.00 0.00 96 1011.0
20260904092526 50 0 0.0 0.0 0.00 0.00 0.00 95 1010.9
20260904092026 50 0 0.0 0.0 0.00 0.00 0.00 95 1011.0
20260904091551 50 0 0.0 0.0 0.00 0.00 0.00 96 1011.0
20260904091026 50 0 0.0 1.0 0.00 0.00 0.00 95 1011.0
20260904090524 51 0 0.0 1.0 0.00 0.00 0.00 95 1010.9
20260904090049 51 12 1.0 1.0 0.00 0.00 0.00 96 1010.9
20260904085529 50 0 0.0 1.0 0.00 0.00 0.00 95 1010.9
20260904085025 51 0 0.0 1.0 0.00 0.00 0.00 95 1011.0
20260904084548 51 291 0.0 1.0 0.00 0.00 0.00 95 1011.0
20260904084026 51 292 0.0 1.0 0.00 0.00 0.00 95 1011.0
20260904083528 51 292 1.0 1.0 0.00 0.00 0.00 95 1011.0
20260904083043 51 292 1.0 1.0 0.00 0.00 0.00 95 1010.9
20260904082525 51 0 0.0 1.0 0.00 0.00 0.00 95 1010.9
20260904082025 51 288 0.0 1.0 0.00 0.00 0.00 95 1010.9
20260904081549 51 288 1.0 1.0 0.00 0.00 0.00 94 1011.0
20260904081025 51 0 0.0 1.0 0.00 0.00 0.00 95 1011.0
20260904080525 51 0 0.0 1.0 0.00 0.00 0.00 94 1011.0
20260904080047 51 309 0.0 1.0 0.00 0.00 0.00 94 1011.0
20260904075526 52 0 0.0 1.0 0.00 0.00 0.00 94 1011.0
20260904075026 52 0 0.0 1.0 0.00 0.00 0.00 94 1010.9
20260904074546 52 309 0.0 1.0 0.00 0.00 0.00 94 1011.0
20260904074026 51 0 0.0 0.0 0.00 0.00 0.00 94 1010.9
20260904073523 52 0 0.0 2.0 0.00 0.00 0.00 93 1010.9
20260904073051 52 0 0.0 2.0 0.00 0.00 0.00 93 1010.9
20260904072526 52 286 1.0 2.0 0.00 0.00 0.00 93 1010.8
20260904072025 52 284 0.0 1.0 0.00 0.00 0.00 94 1010.8
20260904071603 52 0 0.0 1.0 0.00 0.00 0.00 93 1010.8
20260904071026 52 0 0.0 1.0 0.00 0.00 0.00 93 1010.9
20260904070525 53 283 1.0 1.0 0.00 0.00 0.00 93 1010.9
20260904070045 53 285 1.0 1.0 0.00 0.00 0.00 93 1010.8
20260904065526 53 0 0.0 0.0 0.00 0.00 0.00 93 1010.9
20260904065024 53 0 0.0 1.0 0.00 0.00 0.00 92 1010.8
20260904064552 53 0 0.0 2.0 0.00 0.00 0.00 92 1010.8
20260904064026 53 29 1.0 2.0 0.00 0.00 0.00 92 1010.8
20260904063526 53 352 1.0 2.0 0.00 0.00 0.00 92 1010.8
20260904063049 53 287 1.0 2.0 0.00 0.00 0.00 91 1010.8
20260904062528 53 291 1.0 1.0 0.00 0.00 0.00 91 1010.8
20260904062026 53 283 1.0 1.0 0.00 0.00 0.00 91 1010.9
20260904061549 53 282 1.0 1.0 0.00 0.00 0.00 91 1010.9
20260904061026 53 292 1.0 1.0 0.00 0.00 0.00 92 1010.9
20260904060526 53 292 1.0 1.0 0.00 0.00 0.00 91 1010.9
20260904060047 53 292 1.0 1.0 0.00 0.00 0.00 91 1010.9
20260904055525 53 298 1.0 1.0 0.00 0.00 0.00 91 1010.9
20260904055025 53 333 0.0 1.0 0.00 0.00 0.00 91 1010.9
20260904054549 52 0 0.0 1.0 0.00 0.00 0.00 90 1010.8
20260904054025 53 0 0.0 1.0 0.00 0.00 0.00 90 1010.8
20260904053524 53 1 1.0 1.0 0.00 0.00 0.00 90 1010.7
20260904053103 53 0 0.0 2.0 0.00 0.00 0.00 90 1010.7
20260904052525 53 0 0.0 2.0 0.00 0.00 0.00 90 1010.7
20260904052026 53 311 1.0 2.0 0.00 0.00 0.00 90 1010.6
20260904051549 53 304 1.0 2.0 0.00 0.00 0.00 89 1010.5
20260904051024 53 304 0.0 2.0 0.00 0.00 0.00 89 1010.4
20260904050525 54 304 1.0 2.0 0.00 0.00 0.00 89 1010.6
20260904050048 54 304 1.0 2.0 0.00 0.00 0.00 89 1010.4
20260904045524 54 305 1.0 2.0 0.00 0.00 0.00 89 1010.4
20260904045023 54 310 1.0 2.0 0.00 0.00 0.00 88 1010.4
20260904044550 54 310 1.0 1.0 0.00 0.00 0.00 88 1010.4
20260904044024 54 309 0.0 2.0 0.00 0.00 0.00 88 1010.4
20260904043526 54 309 1.0 2.0 0.00 0.00 0.00 87 1010.5
20260904043052 54 306 0.0 1.0 0.00 0.00 0.00 87 1010.4
20260904042525 55 0 0.0 1.0 0.00 0.00 0.00 87 1010.4
20260904042026 55 307 0.0 1.0 0.00 0.00 0.00 87 1010.5
20260904041551 55 0 0.0 0.0 0.00 0.00 0.00 86 1010.5
20260904041024 55 0 0.0 1.0 0.00 0.00 0.00 85 1010.3
20260904040524 55 0 0.0 1.0 0.00 0.00 0.00 85 1010.5
20260904040050 55 307 0.0 1.0 0.00 0.00 0.00 85 1010.4
20260904035526 56 307 0.0 1.0 0.00 0.00 0.00 84 1010.3
20260904035028 56 307 0.0 2.0 0.00 0.00 0.00 85 1010.4
20260904034546 56 295 1.0 2.0 0.00 0.00 0.00 84 1010.4
20260904034025 57 293 1.0 2.0 0.00 0.00 0.00 83 1010.4
20260904033524 57 287 2.0 3.0 0.00 0.00 0.00 82 1010.3
20260904033053 57 290 2.0 3.0 0.00 0.00 0.00 81 1010.4
20260904032526 58 290 1.0 2.0 0.00 0.00 0.00 80 1010.3
20260904032024 58 291 1.0 2.0 0.00 0.00 0.00 79 1010.2
20260904031549 59 293 1.0 2.0 0.00 0.00 0.00 78 1010.2
20260904031025 59 293 1.0 3.0 0.00 0.00 0.00 77 1010.3
20260904030525 60 287 1.0 3.0 0.00 0.00 0.00 77 1010.1
20260904030049 60 295 2.0 3.0 0.00 0.00 0.00 76 1010.3
20260904025559 60 286 2.0 3.0 0.00 0.00 0.00 76 1010.1
20260904025025 60 298 2.0 4.0 0.00 0.00 0.00 75 1010.1
20260904024544 61 302 2.0 4.0 0.00 0.00 0.00 74 1010.1
20260904024024 61 286 3.0 5.0 0.00 0.00 0.00 73 1010.1
20260904023530 61 296 3.0 5.0 0.00 0.00 0.00 72 1010.1
20260904023051 62 305 2.0 4.0 0.00 0.00 0.00 71 1010.0
20260904022525 62 298 1.0 2.0 0.00 0.00 0.00 70 1010.0
20260904022030 63 288 1.0 4.0 0.00 0.00 0.00 69 1010.1
20260904021553 63 302 2.0 6.0 0.00 0.00 0.00 68 1010.0
20260904021027 64 295 3.0 6.0 0.00 0.00 0.00 68 1010.0
20260904020528 65 299 4.0 6.0 0.00 0.00 0.00 65 1009.8
20260904020050 66 278 1.0 2.0 0.00 0.00 0.00 60 1009.8
20260904015525 67 305 0.0 4.0 0.00 0.00 0.00 61 1009.8
20260904015029 67 223 0.0 4.0 0.00 0.00 0.00 59 1009.6
20260904014557 68 193 1.0 3.0 0.00 0.00 0.00 57 1009.6
20260904014024 69 155 2.0 3.0 0.00 0.00 0.00 56 1009.6
20260904013524 69 0 0.0 2.0 0.00 0.00 0.00 58 1009.6
20260904013053 69 0 0.0 3.0 0.00 0.00 0.00 60 1009.5
20260904012526 69 214 1.0 3.0 0.00 0.00 0.00 56 1009.6
20260904012026 70 291 1.0 4.0 0.00 0.00 0.00 56 1009.6
20260904011554 69 215 1.0 4.0 0.00 0.00 0.00 57 1009.6
20260904011026 69 110 2.0 4.0 0.00 0.00 0.00 57 1009.5
20260904010526 69 133 0.0 3.0 0.00 0.00 0.00 57 1009.6
20260904010044 70 256 0.0 3.0 0.00 0.00 0.00 57 1009.6
20260904005525 69 183 0.0 5.0 0.00 0.02 0.00 57 1009.5
20260904005025 70 256 0.0 5.0 0.00 0.02 0.00 57 1009.6
20260904004551 70 0 0.0 3.0 0.00 0.02 0.00 58 1009.5
20260904004029 69 134 0.0 3.0 0.00 0.02 0.00 58 1009.5
20260904003525 69 353 1.0 4.0 0.00 0.02 0.00 59 1009.5
20260904003048 69 284 1.0 4.0 0.00 0.02 0.00 58 1009.5
20260904002525 69 255 0.0 4.0 0.00 0.02 0.00 59 1009.6
20260904002026 69 0 1.0 4.0 0.00 0.02 0.00 58 1009.7
20260904001546 69 139 1.0 4.0 0.00 0.02 0.00 59 1009.7
20260904001026 69 241 2.0 4.0 0.00 0.02 0.00 57 1009.7
20260904000527 69 170 1.0 4.0 0.00 0.02 0.00 57 1009.6
20260904000047 69 200 1.0 4.0 0.00 0.02 0.00 59 1009.7
20260903235527 69 248 2.0 5.0 0.00 0.03 0.00 58 1009.8
20260903235029 69 308 2.0 6.0 0.00 0.03 0.00 58 1009.7
20260903234550 69 240 0.0 6.0 0.00 0.03 0.00 59 1009.8
20260903234026 69 254 2.0 5.0 0.00 0.03 0.00 59 1009.6
20260903233525 68 165 2.0 6.0 0.00 0.03 0.00 59 1009.8
20260903233052 69 300 2.0 7.0 0.00 0.03 0.00 60 1009.7
20260903232525 68 276 2.0 7.0 0.00 0.03 0.00 60 1009.6
20260903232026 68 253 2.0 5.0 0.00 0.03 0.00 60 1009.7
20260903231549 69 34 2.0 5.0 0.00 0.03 0.00 60 1009.7
20260903231025 68 235 1.0 5.0 0.00 0.03 0.00 61 1009.7
20260903230524 69 148 2.0 6.0 0.00 0.03 0.00 60 1009.8
20260903230048 69 148 2.0 7.0 0.00 0.03 0.00 61 1009.7
20260903225529 68 120 1.0 7.0 0.00 0.03 0.00 61 1009.8
20260903225027 68 79 2.0 6.0 0.00 0.03 0.00 61 1009.9
20260903224543 69 261 2.0 5.0 0.00 0.03 0.00 61 1009.9
20260903224026 69 108 1.0 5.0 0.00 0.03 0.00 62 1009.9
20260903223526 68 86 1.0 6.0 0.00 0.03 0.00 61 1009.8
20260903223055 68 233 2.0 6.0 0.00 0.03 0.00 61 1009.9
20260903222524 68 250 2.0 5.0 0.00 0.03 0.00 62 1010.0
20260903222025 68 117 1.0 5.0 0.00 0.03 0.00 62 1010.0
20260903221547 68 179 0.0 5.0 0.00 0.03 0.00 63 1010.0
20260903221025 68 184 1.0 4.0 0.00 0.03 0.00 62 1010.1
20260903220524 68 0 0.0 2.0 0.00 0.03 0.00 62 1010.2
20260903215525 68 112 1.0 4.0 0.00 0.03 0.00 61 1010.2
20260903215027 68 300 1.0 4.0 0.00 0.03 0.00 61 1010.2
20260903214543 68 153 1.0 6.0 0.00 0.03 0.00 62 1010.2
20260903214025 68 193 2.0 6.0 0.00 0.03 0.00 61 1010.2
20260903213525 68 119 2.0 6.0 0.00 0.03 0.00 62 1010.2
20260903213049 69 210 3.0 6.0 0.00 0.03 0.00 60 1010.3
20260903212527 69 168 2.0 5.0 0.00 0.03 0.00 62 1010.2
20260903212026 69 197 2.0 6.0 0.00 0.03 0.00 61 1010.2
20260903211548 68 225 3.0 7.0 0.00 0.03 0.00 62 1010.2
20260903211025 68 228 3.0 7.0 0.00 0.03 0.00 62 1010.2